Date String (YYYY-MM-DD hh:mm:ss) UTC,Instrument flags,absolute air pressure of the measurement (hPa),sample flow rate (lpm),inlet stack bypass flow (lpm),air temperature of the measurement (°C),ambient temperature measured by the external sensor (°C),aerosol sample conditioner tube jacket temperature (°C),OPC LED temperature (°C),internal box temperature (°C),relative humidity of the measurement (%),span deviation,mass concentration of particles derived from Lorenz-Mie calculation of OPC scattering (μg/m³),mass concentration of particles derived from Lorenz-Mie calculation of OPC scattering (μg/m³),mass concentration of particles derived from Lorenz-Mie calculation of OPC scattering (μg/m³)
DateTimeUTC,F1_M11,P_M11,Q1_M11,Q2_M11,T1_M11,T2_M11,T3_M11,T4_M11,T5_M11,U1_M11,ZSPAN_M11,X0_M11,X2_M11,X1_M11
2023-07-31 09:00:00,SystemResetWarning,0833.7,5.00,000.00,029.2,027.8,000.0,037.6,030.9,26.6,0000.0,0008.82,0004.30,0003.85
2023-07-31 09:01:00,SystemResetWarning,0833.8,5.00,000.00,029.2,028.0,000.0,037.6,030.9,26.7,0000.0,0008.56,0004.29,0003.86
2023-07-31 09:02:00,SystemResetWarning,0833.7,5.00,000.00,029.3,028.1,000.0,037.7,031.0,26.4,0000.0,0008.48,0004.27,0003.86
2023-07-31 09:03:00,SystemResetWarning,0833.8,5.00,000.00,029.3,028.2,000.0,037.7,031.0,26.0,0000.0,0008.60,0004.25,0003.84
2023-07-31 09:04:00,SystemResetWarning,0833.9,4.98,000.00,029.4,028.0,000.0,037.7,031.0,26.4,0000.0,0008.95,0004.24,0003.82
2023-07-31 09:05:00,SystemResetWarning,0833.8,5.00,000.00,029.3,026.4,000.0,037.6,030.9,26.6,0000.0,0008.89,0004.19,0003.79
2023-07-31 09:06:00,SystemResetWarning,0833.8,5.00,000.00,029.3,025.5,000.0,037.5,030.7,26.6,0000.0,0008.73,0004.16,0003.76
2023-07-31 09:07:00,SystemResetWarning,0833.8,5.00,000.00,029.2,025.5,000.0,037.5,030.4,26.6,0000.0,0008.65,0004.12,0003.73
2023-07-31 09:08:00,SystemResetWarning,0833.8,5.01,000.00,029.1,025.9,000.0,037.5,030.4,27.5,0000.0,0008.59,0004.09,0003.71
2023-07-31 09:09:00,SystemResetWarning,0833.8,5.00,000.00,029.1,026.3,000.0,037.5,030.5,27.4,0000.0,0008.52,0004.05,0003.69
2023-07-31 09:10:00,SystemResetWarning,0833.8,5.00,000.00,029.1,026.6,000.0,037.6,030.6,27.2,0000.0,0008.11,0004.02,0003.68
2023-07-31 09:11:00,SystemResetWarning,0833.8,5.01,000.00,029.1,027.0,000.0,037.6,030.7,28.5,0000.0,0008.22,0004.01,0003.67
2023-07-31 09:12:00,SystemResetWarning,0833.9,5.00,000.00,029.1,027.2,000.0,037.6,030.7,29.5,0000.0,0008.73,0004.03,0003.67
2023-07-31 09:13:00,SystemResetWarning,0833.9,4.99,000.00,029.2,027.5,000.0,037.6,030.8,29.7,0000.0,0009.18,0004.02,0003.67
2023-07-31 09:14:00,SystemResetWarning,0833.8,5.00,000.00,029.2,027.7,000.0,037.6,030.8,28.1,0000.0,0009.18,0004.01,0003.67
2023-07-31 09:15:00,SystemResetWarning,0833.9,4.99,000.00,029.2,027.9,000.0,037.6,030.9,27.3,0000.0,0008.75,0004.03,0003.68
2023-07-31 09:16:00,SystemResetWarning,0833.9,5.00,000.00,029.3,028.0,000.0,037.6,030.9,28.1,0000.0,0008.65,0004.07,0003.71
2023-07-31 09:17:00,SystemResetWarning,0833.9,5.00,000.00,029.3,028.1,000.0,037.7,031.0,28.9,0000.0,0008.50,0004.10,0003.74
2023-07-31 09:18:00,SystemResetWarning,0833.8,5.00,000.00,029.3,028.2,000.0,037.7,031.0,27.8,0000.0,0008.27,0004.14,0003.78
2023-07-31 09:19:00,SystemResetWarning,0833.9,5.00,000.00,029.4,028.0,000.0,037.7,031.0,27.4,0000.0,0008.34,0004.20,0003.83
2023-07-31 09:20:00,SystemResetWarning,0833.9,4.99,000.00,029.3,026.4,000.0,037.6,030.8,27.4,0000.0,0008.77,0004.26,0003.86
2023-07-31 09:21:00,SystemResetWarning,0833.8,5.01,000.00,029.3,025.5,000.0,037.5,030.6,27.6,0000.0,0009.11,0004.31,0003.89
2023-07-31 09:22:00,SystemResetWarning,0833.8,5.00,000.00,029.2,025.6,000.0,037.5,030.5,27.9,0000.0,0008.80,0004.34,0003.90
2023-07-31 09:23:00,SystemResetWarning,0833.9,5.01,000.00,029.1,025.9,000.0,037.5,030.5,28.2,0000.0,0008.48,0004.37,0003.93
2023-07-31 09:24:00,SystemResetWarning,0833.9,5.00,000.00,029.1,026.3,000.0,037.6,030.6,28.2,0000.0,0008.26,0004.41,0003.96
2023-07-31 09:25:00,SystemResetWarning,0834.0,4.99,000.00,029.1,026.7,000.0,037.6,030.6,28.2,0000.0,0008.45,0004.51,0004.01
2023-07-31 09:26:00,SystemResetWarning,0833.9,5.00,000.00,029.1,027.0,000.0,037.6,030.7,28.1,0000.0,0008.61,0004.53,0004.04
2023-07-31 09:27:00,SystemResetWarning,0834.0,5.01,000.00,029.2,027.3,000.0,037.6,030.8,28.2,0000.0,0009.07,0004.58,0004.08
2023-07-31 09:28:00,SystemResetWarning,0834.0,5.01,000.00,029.2,027.5,000.0,037.6,030.8,28.2,0000.0,0009.59,0004.61,0004.09
2023-07-31 09:29:00,SystemResetWarning,0834.0,4.99,000.00,029.2,027.7,000.0,037.6,030.9,28.2,0000.0,0009.58,0004.58,0004.07
2023-07-31 09:30:00,SystemResetWarning,0834.0,4.99,000.00,029.3,027.9,000.0,037.6,030.9,28.1,0000.0,0009.62,0004.59,0004.09
2023-07-31 09:31:00,SystemResetWarning,0834.0,5.00,000.00,029.3,028.0,000.0,037.7,031.0,27.9,0000.0,0009.41,0004.65,0004.12
2023-07-31 09:32:00,SystemResetWarning,0834.1,5.01,000.00,029.3,028.2,000.0,037.7,031.0,27.8,0000.0,0009.20,0004.69,0004.16
2023-07-31 09:33:00,SystemResetWarning,0834.1,5.01,000.00,029.4,028.2,000.0,037.7,031.1,27.8,0000.0,0009.15,0004.69,0004.19
2023-07-31 09:34:00,SystemResetWarning,0834.1,4.98,000.00,029.4,027.1,000.0,037.6,031.0,27.8,0000.0,0009.16,0004.70,0004.20
2023-07-31 09:35:00,SystemResetWarning,0834.0,5.00,000.00,029.3,025.7,000.0,037.5,030.7,27.9,0000.0,0008.73,0004.71,0004.22
2023-07-31 09:36:00,SystemResetWarning,0834.0,5.01,000.00,029.2,025.5,000.0,037.5,030.5,27.8,0000.0,0008.87,0004.70,0004.24
2023-07-31 09:37:00,SystemResetWarning,0834.0,5.00,000.00,029.1,025.8,000.0,037.5,030.4,27.9,0000.0,0009.59,0004.70,0004.25
2023-07-31 09:38:00,SystemResetWarning,0834.0,5.00,000.00,029.1,026.2,000.0,037.6,030.5,28.1,0000.0,0009.16,0004.69,0004.24
2023-07-31 09:39:00,SystemResetWarning,0834.0,5.00,000.00,029.1,026.6,000.0,037.6,030.6,28.6,0000.0,0008.70,0004.67,0004.24
2023-07-31 09:40:00,SystemResetWarning,0834.0,5.00,000.00,029.1,026.9,000.0,037.6,030.7,28.6,0000.0,0008.70,0004.71,0004.25
2023-07-31 09:41:00,SystemResetWarning,0834.0,5.00,000.00,029.1,027.2,000.0,037.6,030.7,30.0,0000.0,0008.73,0004.72,0004.26
2023-07-31 09:42:00,SystemResetWarning,0834.0,4.99,000.00,029.2,027.5,000.0,037.6,030.8,29.8,0000.0,0008.77,0004.70,0004.24
2023-07-31 09:43:00,SystemResetWarning,0834.1,5.00,000.00,029.2,027.7,000.0,037.6,030.9,29.6,0000.0,0008.71,0004.67,0004.22
2023-07-31 09:44:00,SystemResetWarning,0834.1,5.00,000.00,029.3,027.8,000.0,037.6,030.9,29.2,0000.0,0009.51,0004.70,0004.22
2023-07-31 09:45:00,SystemResetWarning,0834.1,5.00,000.00,029.3,028.0,000.0,037.7,031.0,28.9,0000.0,0009.75,0004.74,0004.23
2023-07-31 09:46:00,SystemResetWarning,0834.2,5.00,000.00,029.3,028.1,000.0,037.7,031.0,27.9,0000.0,0009.75,0004.74,0004.23
2023-07-31 09:47:00,SystemResetWarning,0834.2,5.00,000.00,029.4,028.2,000.0,037.7,031.0,27.7,0000.0,0009.68,0004.71,0004.21
2023-07-31 09:48:00,SystemResetWarning,0834.2,5.00,000.00,029.4,028.2,000.0,037.7,031.1,27.2,0000.0,0009.17,0004.74,0004.22
2023-07-31 09:49:00,SystemResetWarning,0834.2,4.98,000.00,029.4,026.9,000.0,037.6,030.9,27.1,0000.0,0009.01,0004.72,0004.22
2023-07-31 09:50:00,SystemResetWarning,0834.2,5.02,000.00,029.3,025.7,000.0,037.5,030.7,27.6,0000.0,0008.98,0004.71,0004.23
2023-07-31 09:51:00,SystemResetWarning,0834.2,5.01,000.00,029.2,025.5,000.0,037.5,030.5,27.7,0000.0,0009.00,0004.74,0004.25
2023-07-31 09:52:00,SystemResetWarning,0834.2,4.99,000.00,029.1,025.8,000.0,037.6,030.4,27.9,0000.0,0008.95,0004.72,0004.25
2023-07-31 09:53:00,SystemResetWarning,0834.2,5.00,000.00,029.1,026.2,000.0,037.6,030.5,28.1,0000.0,0009.05,0004.70,0004.24
2023-07-31 09:54:00,SystemResetWarning,0834.2,5.00,000.00,029.1,026.6,000.0,037.6,030.6,28.0,0000.0,0009.51,0004.71,0004.23
2023-07-31 09:55:00,SystemResetWarning,0834.4,5.00,000.00,029.1,026.9,000.0,037.6,030.7,28.2,0000.0,0009.47,0004.72,0004.23
2023-07-31 09:56:00,SystemResetWarning,0834.3,5.00,000.00,029.1,027.2,000.0,037.6,030.7,28.2,0000.0,0009.49,0004.72,0004.23
2023-07-31 09:57:00,SystemResetWarning,0834.3,4.99,000.00,029.2,027.4,000.0,037.6,030.8,28.2,0000.0,0009.52,0004.71,0004.22
2023-07-31 09:58:00,SystemResetWarning,0834.4,5.00,000.00,029.2,027.6,000.0,037.6,030.8,28.2,0000.0,0009.70,0004.73,0004.22
2023-07-31 09:59:00,SystemResetWarning,0834.3,5.00,000.00,029.2,027.8,000.0,037.6,030.9,28.3,0000.0,0009.33,0004.70,0004.22
